[[{"header":{"parameterUnit":"m.s-1","parameterCategory":1,"la1":30.2991,"la2":30.254,"lo1":-89.0895,"lo2":-89.0444,"dy":0.0017,"dx":0.0017,"nx":28,"ny":28,"refTime":"2025-12-30T03:00:00:Z","depth":0,"parameterNumber":2,"parameterNumberName":"U-component_of_WINDS"},"data":[0,0,0,0,0,0,0,0,0,0,0,0,0,0,0,0,0,0,0,0,0,0,0,0,0,0,0,0,0,0,0,0,0,0,0,0,0,0,0,0,0,0,0,0,0,0,0,0,0,0,0,0,0,0,0,0,0,0,2.0349,2.0349,0,2.0369,2.0369,2.0369,2.0359,2.0358,2.0358,2.0357,2.0376,2.0377,2.0378,0,0,0,0,0,0,0,0,0,0,0,0,0,2.0303,2.0304,2.0349,2.0349,2.0349,2.0368,2.0369,2.0369,2.0359,2.0358,2.0358,2.0357,2.0376,2.0377,2.0378,0,0,0,0,0,0,0,0,0,0,0,0,0,2.0323,2.0304,2.0349,2.0347,2.0347,2.0368,2.0369,2.0369,2.0359,2.0358,2.0357,2.0357,2.0375,2.0377,2.0378,2.0403,0,0,2.0383,2.0383,0,0,0,0,0,0,0,0,2.0321,2.0324,2.0347,2.0347,2.0347,2.036,2.0359,2.038,2.0359,2.0354,2.0357,2.0356,2.0371,2.0373,2.0378,2.0404,2.0404,2.0383,2.0384,2.0384,2.0385,0,0,0,0,0,0,0,2.032,2.0323,2.0357,2.0347,2.0347,2.0345,2.0347,2.0363,2.0367,2.0355,2.0354,2.0356,2.0371,2.0377,2.0379,2.0405,2.0383,2.0384,2.0385,2.0385,2.0452,2.0453,0,0,0,0,0,0,2.0319,2.0322,2.0356,2.0357,2.0332,2.0346,2.0348,2.0357,2.0367,2.0367,2.0357,2.0356,2.0375,2.0377,2.0379,2.0409,2.0384,2.0386,2.0386,2.0451,2.0452,2.0453,0,0,0,0,0,0,2.0318,2.0322,2.0355,2.034,2.0344,2.0348,2.0357,2.0358,2.0363,2.0369,2.0369,2.0362,2.0374,2.0377,2.0397,2.0409,2.0386,2.0388,2.045,2.0451,2.0453,2.0468,0,0,0,0,0,0,2.0317,2.0322,2.0331,2.034,2.0345,2.0373,2.0358,2.0359,2.0366,2.0365,2.0374,2.0374,2.0374,2.0395,2.0399,2.0411,2.0389,2.0449,2.0451,2.0452,2.0467,2.047,2.0473,0,0,0,0,0,2.0315,2.0334,2.0331,2.0336,2.0356,2.0374,2.0376,2.0376,2.0367,2.0376,2.038,2.0374,2.0408,2.0397,2.0401,2.0414,2.0448,2.045,2.0452,2.0465,2.0469,2.0473,0,0,0,0,0,0,2.0325,2.0335,2.0332,2.0355,2.0364,2.0372,2.0383,2.038,2.0391,2.0389,2.0388,2.039,2.0411,2.0415,2.0402,2.0439,2.0427,2.043,2.0435,2.0439,2.0442,2.044,2.039,0,0,0,0,0,2.0331,2.0344,2.0352,2.0371,2.0376,2.0379,2.0386,2.0386,2.0394,2.0398,2.0403,2.0411,2.0424,2.0432,2.0444,2.0468,2.047,2.0479,2.0482,2.0484,2.0486,2.05,2.0504,2.046,2.046,2.046,0,0,2.0341,2.0348,2.0356,2.0373,2.038,2.0394,2.0382,2.0397,2.0407,2.04,2.0419,2.0423,2.0433,2.0455,2.0465,2.0459,2.05,2.0487,2.0489,2.049,2.0502,2.0507,2.051,2.0461,2.0461,2.0461,0,0,2.0366,2.0373,2.039,2.0398,2.0408,2.0411,2.0415,2.0424,2.0427,2.0446,2.0441,2.0454,2.0475,2.0483,2.0489,2.052,2.0515,2.0524,2.0539,2.0552,2.0556,2.0559,2.057,2.0574,2.0526,2.0526,2.0526,0,2.0377,2.0398,2.0399,2.0415,2.0423,2.0418,2.0435,2.0442,2.0456,2.0462,2.0455,2.0483,2.0489,2.0513,2.0521,2.0526,2.0531,2.0522,2.0555,2.0559,2.0561,2.0572,2.0576,2.0527,2.0527,2.0527,2.0527,0,2.0411,2.0426,2.0439,2.0453,2.0463,2.0479,2.0482,2.0492,2.0491,2.0494,2.0515,2.0522,2.0536,2.0542,2.054,2.0566,2.0562,2.0556,2.0543,2.0567,2.0576,2.058,2.0529,2.0528,2.0528,2.0528,0,0,2.0442,2.0458,2.0463,2.0469,2.0482,2.0493,2.051,2.0524,2.0532,2.0543,2.0556,2.0576,2.0571,2.0578,2.0578,2.059,2.0614,2.0582,2.0582,2.0587,2.0642,2.0646,2.0651,2.0611,2.0612,2.0612,2.0641,0,2.0468,2.0497,2.0499,2.0526,2.054,2.0537,2.0551,2.0561,2.0565,2.0577,2.0582,2.0595,2.0587,2.0592,2.0604,2.0608,2.0624,2.0606,2.0623,2.0624,2.062,2.0656,2.066,2.0686,2.0645,2.0646,2.0646,0,2.0501,2.0514,2.0542,2.0554,2.0559,2.0573,2.0586,2.0598,2.0609,2.0611,2.0621,2.062,2.0637,2.0625,2.0649,2.0637,2.0644,2.0648,2.0649,2.0649,2.0635,2.0656,2.0695,2.0698,2.0652,2.0651,2.0651,0,2.052,2.0544,2.0564,2.057,2.0584,2.0594,2.06,2.061,2.0619,2.0631,2.0637,2.0651,2.0658,2.0669,2.0672,2.0663,2.0696,2.0684,2.0698,2.0698,2.0703,2.0703,2.0743,2.071,2.071,2.071,2.071,0,2.0548,2.0565,2.0573,2.0585,2.0604,2.0607,2.0627,2.0632,2.0642,2.0655,2.0654,2.0666,2.067,2.0683,2.0685,2.0705,2.0708,2.071,2.071,2.071,2.0709,2.0713,2.0711,2.0711,2.0711,2.0711,2.071,0,2.0572,2.0577,2.0599,2.0611,2.0615,2.0629,2.0639,2.0651,2.0656,2.0673,2.0677,2.0684,2.07,2.0704,2.0723,2.0725,2.0748,2.0746,2.0744,2.0743,2.0757,2.0755,2.08,2.0806,2.077,2.077,2.0771,0,2.0588,2.0602,2.0616,2.0625,2.0632,2.0647,2.0656,2.0661,2.067,2.0685,2.0695,2.0711,2.0723,2.0749,2.0755,2.077,2.0769,2.0784,2.0771,2.077,2.0768,2.0767,2.0768,2.0785,2.0786,2.0786,2.0786,0,2.0617,2.062,2.0634,2.0649,2.0661,2.0673,2.0684,2.0692,2.0698,2.0709,2.0726,2.0736,2.0755,2.0771,2.0786,2.0792,2.079,2.0791,2.0794,2.0793,2.0791,2.0792,2.0749,2.0789,2.0789,2.0789,2.0788,2.0788,2.0637,2.065,2.0662,2.0678,2.0687,2.0699,2.0711,2.0718,2.0732,2.0748,2.075,2.0768,2.078,2.08,2.0808,2.0822,2.0817,2.0823,2.0824,2.0825,2.0826,2.079,2.0824,2.0824,2.0824,2.0824,2.0824,0,2.0666,2.0674,2.0689,2.0706,2.0719,2.0717,2.073,2.0741,2.0757,2.0768,2.0781,2.0801,2.0816,2.0825,2.0841,2.0851,2.085,2.0854,2.0853,2.0855,2.0829,2.0824,2.0855,2.0855,2.0855,2.0855,2.0855,2.0855,2.0682,2.0702,2.0707,2.0732,2.0741,2.0759,2.0766,2.0777,2.0786,2.0808,2.0822,2.0828,2.0839,2.0855,2.087,2.0872,2.0878,2.0882,2.0884,2.086,2.0856,2.0853,2.0848,2.0884,2.0884,2.0908,2.0908,2.0909]},{"header":{"parameterUnit":"m.s-1","parameterCategory":1,"la1":30.2991,"la2":30.254,"lo1":-89.0895,"lo2":-89.0444,"dy":0.0017,"dx":0.0017,"nx":28,"ny":28,"refTime":"2025-12-30T03:00:00:Z","depth":0,"parameterNumber":3,"parameterNumberName":"V-component_of_WINDS"},"data":[0,0,0,0,0,0,0,0,0,0,0,0,0,0,0,0,0,0,0,0,0,0,0,0,0,0,0,0,0,0,0,0,0,0,0,0,0,0,0,0,0,0,0,0,0,0,0,0,0,0,0,0,0,0,0,0,0,0,-7.8943,-7.8945,0,-7.9131,-7.9133,-7.9136,-7.9056,-7.9051,-7.9047,-7.9042,-7.923,-7.9239,-7.9248,0,0,0,0,0,0,0,0,0,0,0,0,0,-7.8508,-7.8517,-7.8942,-7.8945,-7.8947,-7.9131,-7.9134,-7.9136,-7.9056,-7.9051,-7.9045,-7.904,-7.9227,-7.9238,-7.9249,0,0,0,0,0,0,0,0,0,0,0,0,0,-7.8697,-7.8519,-7.8942,-7.893,-7.893,-7.913,-7.9134,-7.9137,-7.9058,-7.9051,-7.9044,-7.9038,-7.9224,-7.9237,-7.9251,-7.9472,0,0,-7.9293,-7.9299,0,0,0,0,0,0,0,0,-7.8686,-7.8713,-7.8929,-7.8931,-7.8932,-7.9063,-7.9049,-7.9249,-7.9059,-7.9009,-7.9042,-7.9034,-7.918,-7.9197,-7.9247,-7.9481,-7.9489,-7.9294,-7.9303,-7.9309,-7.9313,0,0,0,0,0,0,0,-7.8673,-7.8704,-7.9017,-7.8932,-7.8934,-7.8913,-7.8932,-7.9087,-7.913,-7.9013,-7.9008,-7.9031,-7.9179,-7.9234,-7.9251,-7.9492,-7.9294,-7.9306,-7.9315,-7.932,-7.9918,-7.9925,0,0,0,0,0,0,-7.8661,-7.8694,-7.9011,-7.9022,-7.879,-7.8927,-7.8948,-7.9028,-7.9128,-7.9137,-7.9037,-7.9027,-7.9214,-7.9235,-7.9257,-7.9524,-7.9309,-7.9322,-7.9329,-7.991,-7.9919,-7.9927,0,0,0,0,0,0,-7.8652,-7.869,-7.9003,-7.8857,-7.8895,-7.8941,-7.9031,-7.9035,-7.909,-7.9147,-7.9153,-7.9085,-7.9209,-7.9238,-7.942,-7.9529,-7.9328,-7.934,-7.9901,-7.9913,-7.9923,-8.0059,0,0,0,0,0,0,-7.864,-7.8687,-7.8773,-7.886,-7.8903,-7.9165,-7.9038,-7.9044,-7.9114,-7.9103,-7.9194,-7.9202,-7.9206,-7.94,-7.9434,-7.9545,-7.9351,-7.9891,-7.9906,-7.992,-8.0045,-8.0073,-8.0098,0,0,0,0,0,-7.8624,-7.8802,-7.8778,-7.8816,-7.9012,-7.9171,-7.9196,-7.9199,-7.9124,-7.921,-7.9246,-7.9199,-7.9512,-7.9419,-7.9457,-7.9573,-7.9885,-7.9902,-7.9919,-8.0033,-8.0068,-8.0097,0,0,0,0,0,0,-7.8725,-7.8813,-7.8787,-7.8998,-7.9078,-7.9158,-7.9266,-7.9236,-7.9337,-7.9322,-7.9319,-7.934,-7.9529,-7.9569,-7.9464,-7.9793,-7.9686,-7.9712,-7.976,-7.9794,-7.982,-7.9807,-7.9363,0,0,0,0,0,-7.8772,-7.8896,-7.8965,-7.9145,-7.9187,-7.922,-7.9289,-7.9285,-7.9367,-7.9399,-7.9449,-7.9529,-7.9645,-7.9721,-7.9831,-8.005,-8.0068,-8.0148,-8.0175,-8.0196,-8.0219,-8.0337,-8.0374,-7.9983,-7.9983,-7.9983,0,0,-7.887,-7.8934,-7.9012,-7.9167,-7.9228,-7.9356,-7.9249,-7.9387,-7.9481,-7.942,-7.9596,-7.9635,-7.9724,-7.9926,-8.0017,-7.9965,-8.0331,-8.0218,-8.0235,-8.0245,-8.0359,-8.0396,-8.0429,-7.9995,-7.9993,-7.9991,0,0,-7.9114,-7.9175,-7.9332,-7.9396,-7.9491,-7.9512,-7.9549,-7.9634,-7.9659,-7.9836,-7.9792,-7.9902,-8.0103,-8.0168,-8.0227,-8.0497,-8.0457,-8.0532,-8.0671,-8.0787,-8.0818,-8.0845,-8.0942,-8.0977,-8.0554,-8.0554,-8.0555,0,-7.9224,-7.9415,-7.9416,-7.9559,-7.9628,-7.958,-7.9739,-7.98,-7.9925,-7.9974,-7.9914,-8.0165,-8.0221,-8.0438,-8.0504,-8.0553,-8.0596,-8.0522,-8.0814,-8.0841,-8.0867,-8.0959,-8.0995,-8.0563,-8.0562,-8.0561,-8.056,0,-7.9545,-7.9679,-7.9794,-7.9919,-8.0001,-8.0151,-8.0173,-8.0256,-8.0244,-8.0271,-8.0451,-8.0517,-8.064,-8.0691,-8.0679,-8.0906,-8.0871,-8.0813,-8.0706,-8.0913,-8.0999,-8.1034,-8.0575,-8.0572,-8.057,-8.0568,0,0,-7.9858,-7.9982,-8.0024,-8.0081,-8.0182,-8.0285,-8.0432,-8.0554,-8.0625,-8.0713,-8.0836,-8.1007,-8.0954,-8.1022,-8.1017,-8.1119,-8.1329,-8.1048,-8.105,-8.1099,-8.1583,-8.1627,-8.1668,-8.1303,-8.131,-8.1315,-8.1576,0,-8.011,-8.0371,-8.0376,-8.0615,-8.0738,-8.0694,-8.0822,-8.0897,-8.0927,-8.1034,-8.1064,-8.1186,-8.1107,-8.1148,-8.1246,-8.1283,-8.1426,-8.1264,-8.1417,-8.1422,-8.1397,-8.1713,-8.176,-8.2003,-8.161,-8.1615,-8.162,0,-8.044,-8.0541,-8.0792,-8.0877,-8.0928,-8.1044,-8.1157,-8.126,-8.1344,-8.1358,-8.1434,-8.1415,-8.1563,-8.1452,-8.1656,-8.1546,-8.1608,-8.1635,-8.1645,-8.166,-8.1534,-8.1737,-8.208,-8.2117,-8.1673,-8.1668,-8.1665,0,-8.0644,-8.0842,-8.1019,-8.1068,-8.1171,-8.1253,-8.1299,-8.1377,-8.145,-8.1548,-8.1595,-8.1708,-8.177,-8.1857,-8.1868,-8.1786,-8.2074,-8.1963,-8.2089,-8.2089,-8.2152,-8.2149,-8.2511,-8.2192,-8.2191,-8.2191,-8.219,0,-8.0925,-8.1081,-8.1112,-8.1221,-8.1393,-8.1397,-8.1567,-8.1607,-8.1676,-8.1791,-8.1758,-8.1866,-8.1874,-8.1984,-8.1993,-8.2162,-8.2189,-8.2204,-8.2205,-8.2208,-8.2206,-8.2249,-8.2233,-8.22,-8.2198,-8.2196,-8.2195,0,-8.1183,-8.121,-8.1399,-8.1482,-8.1506,-8.163,-8.1699,-8.1802,-8.1828,-8.1974,-8.2008,-8.2048,-8.2176,-8.2196,-8.2345,-8.2351,-8.2554,-8.2536,-8.2526,-8.2524,-8.265,-8.2638,-8.3053,-8.3108,-8.2752,-8.2756,-8.2759,0,-8.1361,-8.1481,-8.1576,-8.1652,-8.1703,-8.1824,-8.19,-8.1907,-8.1987,-8.2092,-8.2182,-8.2308,-8.2408,-8.2615,-8.2656,-8.2771,-8.2756,-8.2894,-8.2773,-8.2772,-8.2759,-8.2752,-8.2764,-8.2917,-8.2921,-8.2924,-8.2927,0,-8.1675,-8.1683,-8.1794,-8.191,-8.2002,-8.2093,-8.2179,-8.2242,-8.226,-8.2351,-8.2483,-8.2561,-8.2715,-8.284,-8.2953,-8.2998,-8.2967,-8.2965,-8.3,-8.3005,-8.2994,-8.3002,-8.2591,-8.2955,-8.2952,-8.295,-8.2949,-8.2948,-8.1899,-8.2004,-8.2088,-8.2212,-8.2278,-8.236,-8.2461,-8.2501,-8.2611,-8.2739,-8.2736,-8.2881,-8.2961,-8.3111,-8.3164,-8.3276,-8.3231,-8.3283,-8.3296,-8.3309,-8.3321,-8.2976,-8.3297,-8.3296,-8.3295,-8.3295,-8.3294,0,-8.2213,-8.2265,-8.238,-8.2502,-8.26,-8.2563,-8.2656,-8.274,-8.2869,-8.2948,-8.3048,-8.32,-8.3321,-8.3372,-8.349,-8.357,-8.3559,-8.3601,-8.3596,-8.3607,-8.3354,-8.3312,-8.3609,-8.3609,-8.3609,-8.3609,-8.3609,-8.3609,-8.2387,-8.2562,-8.258,-8.2787,-8.2837,-8.2981,-8.3037,-8.3112,-8.3175,-8.3347,-8.3448,-8.3481,-8.3549,-8.3672,-8.3781,-8.3792,-8.3838,-8.3888,-8.3893,-8.3656,-8.3624,-8.3594,-8.3555,-8.3897,-8.3898,-8.4136,-8.4138,-8.414]}]]